Location: Madrid
(40.4000°N, 3.6830°W)
Time: 13:08:27
(UTC+01:00)

ISS - Pass Details

Date: 10 December 2019
Orbit: 411 x 421 km, 51.6° (Epoch: 11 December)

Event Time Altitude Azimuth Distance (km) Brightness Sun altitude
Rises 19:59:51 0° 292° (WNW) 2,358 0.9 -24.3°
Reaches altitude 10° 20:02:25 10° 272° (W) 1,493 0.0 -24.8°
Maximum altitude 20:04:43 17° 229° (SW) 1,120 -1.0 -25.2°
Enters shadow 20:06:05 14° 199° (SSW) 1,261 -1.0 -25.5°
